< < Back
Terminal Aerodrome Forecast


Current Version              Previous Versions:   1  2  3  4  5  6  7  8  9  

Terminal Aerodrome Forecast

268
FTUS44 KMRX 231723
TAFCHA
TAF
KCHA 231723Z 2318/2418 22005KT P6SM VCTS SCT040CB BKN120
     FM240200 25004KT P6SM VCSH SCT040 BKN150
     FM240900 VRB03KT 5SM BR SCT008 BKN030
     FM241400 24008KT P6SM VCTS BKN035CB=



Latest METAR

759
SAUS80 KWBC 240400
MTRCHA
METAR KCHA 240353Z 00000KT 10SM BKN095 BKN120 26/22 A3001 RMK AO2 SLP154
LAST T02560222


USA.gov is the U.S. government's official web portal to all federal, state and local government web resources and services.